This is the latest recevied weather packets stored in our database for station/object K0PFX-8. If no packets are shown the sender has not sent any weather packets the latest 10 day(s).
| Time | Temp. | Humidity | Pressure | Rain* | Wind** | Luminosity | Snow |
|---|---|---|---|---|---|---|---|
| 1777545416 | 5° C | 97% | 1020.3 hPa | 0 mm | 0 m/s | - | - |
| 1777544517 | 5.56° C | 98% | 1020 hPa | 0 mm | 0 m/s | - | - |
| 1777543616 | 5.56° C | 97% | 1020.1 hPa | 0 mm | 0 m/s | - | - |
| 1777542716 | 5.56° C | 96% | 1020 hPa | 0 mm | 0 m/s | - | - |
| 1777541815 | 5.56° C | 96% | 1020.1 hPa | 0 mm | 0 m/s | - | - |
| 1777540916 | 5.56° C | 96% | 1020.2 hPa | 0 mm | 0 m/s | - | - |
| 1777540015 | 6.11° C | 95% | 1019.9 hPa | 0 mm | 0 m/s | - | - |
| 1777539117 | 6.11° C | 94% | 1020 hPa | 0 mm | 0 m/s | - | - |
| 1777538216 | 6.11° C | 94% | 1019.9 hPa | 0 mm | 0 m/s | - | - |
| 1777537317 | 6.67° C | 94% | 1020.1 hPa | 0 mm | 0 m/s | - | - |
| 1777536416 | 6.67° C | 93% | 1020 hPa | 0 mm | 0 m/s | - | - |
| 1777535518 | 6.67° C | 93% | 1019.9 hPa | 0 mm | 0 m/s | - | - |
| 1777534617 | 7.22° C | 92% | 1020 hPa | 0 mm | 0 m/s | - | - |
| 1777533718 | 7.22° C | 93% | 1020 hPa | 0 mm | 0 m/s | - | - |
| 1777532817 | 7.22° C | 93% | 1020 hPa | 0 mm | 0 m/s | - | - |
| 1777531918 | 7.22° C | 93% | 1020.1 hPa | 0 mm | 0 m/s | - | - |
| 1777531017 | 7.78° C | 92% | 1020 hPa | 0 mm | 0 m/s | - | - |
| 1777530118 | 7.78° C | 91% | 1019.9 hPa | 0 mm | 0 m/s | - | - |
| 1777529217 | 8.33° C | 90% | 1020.1 hPa | 0 mm | 0 m/s | - | - |
| 1777528318 | 8.33° C | 91% | 1020.2 hPa | 0 mm | 0 m/s | - | - |
| 1777527417 | 8.89° C | 91% | 1020.2 hPa | 0 mm | 0 m/s | - | - |
| 1777526518 | 8.89° C | 90% | 1020 hPa | 0 mm | 0 m/s | - | - |
| 1777525617 | 9.44° C | 87% | 1019.9 hPa | 0 mm | 0 m/s | - | - |
* Rain latest hour (hover to see other rain measurements)
** Current wind speed in m/s (hover to see current wind gust speed)